Preview of NWS' New Version of Forecast
This preview is not operational and should not be used for support decisions.

Regional Weather Roundup (RWR)

Issued by National Weather Service (NWS)

                            
000
ASUS46 KSEW 220410
RWRWA 

WASHINGTON REGIONAL WEATHER ROUNDUP
NATIONAL WEATHER SERVICE SEATTLE WA
900 PM PDT SUN JUL 21 2019

NOTE:"FAIR" INDICATES FEW OR NO CLOUDS BELOW 12,000 FEET WITH NO 
SIGNIFICANT WEATHER AND/OR OBSTRUCTIONS TO VISIBILITY.

WAZ507-509-555>559-220500-
SEATTLE, TACOMA, EVERETT, AND VICINITY
  
CITY           SKY/WX    TMP DP  RH WIND       PRES   REMARKS
EVERETT        CLEAR     64  50  60 N8        29.95S                  
BOEING FIELD   PTCLDY    74  46  36 NW5       29.91R                  
RENTON         CLEAR     77  53  43 N8        29.90R                  
SEATAC AIRPORT PTCLDY    75  46  35 NW7       29.92S                  
JBLM-MCCHORD   CLEAR     77  58  52 NW8       29.92R                  
PUYALLUP       FAIR      73  50  43 CALM      29.93R                  
BREMERTON      NOT AVBL                                               
JBLM-FT LEWIS  CLEAR     74  57  53 W8        29.92R                  
TACOMA NARROWS CLEAR     71  50  47 N5        29.92R                  
$$
 
WAZ001-503-506-510-514-515-220500-
NORTH INTERIOR
  
CITY           SKY/WX    TMP DP  RH WIND       PRES   REMARKS
BELLINGHAM     CLEAR     70  56  61 VRB3      29.91R                  
FRIDAY HARBOR  CLEAR     56  49  77 CALM      29.93S                  
EASTSOUND      CLEAR     70  52  52 S7        29.90S                  
PORT ANGELES   CLEAR     63  43  48 W13       29.96S                  
EDIZ HOOK      FAIR      61  44  54 W15       29.95S                  
PORT TOWNSEND  FAIR      68  46  45 NW9G16    29.92S                  
NAS WHIDBEY    PTCLDY    59  49  69 SW5       29.98R                  
ARLINGTON        N/A     67  51  56 NW6       29.94R                  
BURLINGTON     CLEAR     66  52  59 S3        29.93R                  
$$
 
WAZ020-022-039-040-504-511-512-220500-
SOUTHWEST INTERIOR
  
CITY           SKY/WX    TMP DP  RH WIND       PRES   REMARKS
SHELTON        CLEAR     72  48  42 W12G23    29.90S                  
OLYMPIA        CLEAR     71  50  47 S6        29.92R                  
CHEHALIS       FAIR      70  50  49 CALM      29.95R                  
KELSO          CLEAR     69  56  62 VRB3      29.96R                  
VANCOUVER      CLEAR     76  56  49 VRB6      29.90R                  
SCAPPOOSE, OR  CLEAR     73  53  49 N10       29.90R                  
PORTLAND, OR   PTCLDY    77  57  50 N7        29.91R                  
$$
 
WAZ021-516-517-220500-
WASHINGTON COAST
  
CITY           SKY/WX    TMP DP  RH WIND       PRES   REMARKS
FORKS          CLEAR     59  52  77 NW5       29.99R                  
HOQUIAM        CLEAR     62  55  77 W9        29.98S                  
ASTORIA, OR    CLEAR     61  55  81 W6        30.00R                  
$$
 
WAZ019-023-024-040-567>569-220500-
CASCADE MOUNTAINS AND COLUMBIA GORGE
  
CITY           SKY/WX    TMP DP  RH WIND       PRES   REMARKS
STAMPEDE PASS  CLEAR     66  44  45 S5        30.09R                  
TROUTDALE, OR  CLEAR     78  57  48 VRB7      29.90R                  
HOOD RIVER, OR CLEAR     79  52  38 CALM      29.88R                  
THE DALLES, OR CLEAR     84  43  23 CALM      29.84R                  
$$

WAZ026-027-041>044-520-521-220500-
EAST SLOPES
  
CITY           SKY/WX    TMP DP  RH WIND       PRES   REMARKS
OMAK           CLEAR     76  38  25 CALM      29.95R                  
WENATCHEE      CLEAR     76  50  40 SE7       29.92R                  
ELLENSBURG     CLEAR     74  49  41 NE6       29.95S                  
YAKIMA         CLEAR     73  52  47 SW3       29.91S                  
SUNNYSIDE ARPT CLEAR     74  55  50 CALM      29.89R                  
YAKIMA TC      FAIR      76  35  22 E5        29.91S                  
$$

WAZ028-034-035-220500-
COLUMBIA BASIN
  
CITY           SKY/WX    TMP DP  RH WIND       PRES   REMARKS
EPHRATA        CLEAR     83  35  18 NW7       29.91S                  
MOSES LAKE     CLEAR     81  43  26 NW9       29.90F                  
PASCO          CLEAR     74  56  53 N7        29.85S                  
RICHLAND ARPT  CLEAR     84  40  21 NW7       29.85                   
HERMISTON, OR  CLEAR     81  47  30 W3        29.85R                  
$$

WAZ036>038-220500-
NORTHEAST WASHINGTON
  
CITY           SKY/WX    TMP DP  RH WIND       PRES   REMARKS
SPOKANE GEIGER PTCLDY    81  39  22 NE3       30.00S                  
SPOKANE FELTS  CLEAR     74  42  31 NE3       29.97S                  
FAIRCHILD AFB  CLEAR     76  37  25 N7        30.00S                  
COEURDALENE,ID CLEAR     71  46  40 N8        30.00S                  
DEER PARK      CLEAR     67  44  43 MISG      30.00R                  
$$

WAZ029>033-220500-
SOUTHEAST WASHINGTON
  
CITY           SKY/WX    TMP DP  RH WIND       PRES   REMARKS
PULLMAN        CLEAR     72  43  35 CALM      30.00S                  
LEWISTON, ID   CLEAR     85  34  16 CALM      29.91S                  
WALLA WALLA    CLEAR     80  33  18 VRB5      29.86S                  
PENDLETON, OR  CLEAR     74  40  29 NW12      29.89R                  
$$